Time,TemperatureF,DewpointF,PressureIn,WindDirection,WindDirectionDegrees,WindSpeedMPH,WindSpeedGustMPH,Humidity,HourlyPrecipIn,Conditions,Clouds,dailyrainin,SolarRadiationWatts/m^2,SoftwareType,DateUTC
2013-12-12 00:42:00,34.0,15.0,30.42,East,82,16.0,17.0,46,-99.99,,,-99.99,0.000000,,2013-12-12 07:42:00,
2013-12-12 01:42:00,34.0,15.0,30.41,East,89,17.0,21.0,45,-99.99,,,-99.99,0.000000,,2013-12-12 08:42:00,
2013-12-12 02:12:00,35.0,15.0,30.41,East,80,15.0,17.0,43,-99.99,,,-99.99,0.000000,,2013-12-12 09:12:00,
2013-12-12 02:43:00,35.0,15.0,30.40,ENE,71,16.0,19.0,44,-99.99,,,-99.99,0.000000,,2013-12-12 09:43:00,
2013-12-12 05:42:00,34.0,14.0,30.38,ENE,75,16.0,19.0,42,-99.99,,,-99.99,0.000000,,2013-12-12 12:42:00,
2013-12-12 06:42:00,35.0,20.0,30.41,NE,56,10.0,14.0,53,-99.99,,,-99.99,0.000000,,2013-12-12 13:42:00,
2013-12-12 06:52:00,35.0,20.0,30.41,NE,56,10.0,14.0,53,-99.99,,,-99.99,0.000000,,2013-12-12 13:52:00,
2013-12-12 07:11:00,32.0,25.0,30.39,East,94,20.0,24.0,73,-99.99,,,-99.99,0.000000,,2013-12-12 14:11:00,
2013-12-12 08:22:00,32.0,24.0,30.39,East,97,22.0,24.0,71,-99.99,,,-99.99,27.200001,,2013-12-12 15:22:00,
2013-12-12 08:33:00,32.0,24.0,30.39,East,97,22.0,24.0,71,-99.99,,,-99.99,27.200001,,2013-12-12 15:33:00,
2013-12-12 08:54:00,32.0,24.0,30.43,East,84,12.0,16.0,71,-99.99,,,-99.99,12.550000,,2013-12-12 15:54:00,
2013-12-12 09:03:00,32.0,24.0,30.43,East,84,12.0,16.0,71,-99.99,,,-99.99,12.550000,,2013-12-12 16:03:00,
2013-12-12 09:43:00,32.0,27.0,30.43,East,80,13.0,17.0,81,-99.99,,,-99.99,40.450001,,2013-12-12 16:43:00,
2013-12-12 11:43:00,34.0,29.0,30.38,East,82,14.0,18.0,82,-99.99,,,-99.99,66.250000,,2013-12-12 18:43:00,
2013-12-12 12:11:00,37.0,31.0,30.38,ESE,104,12.0,18.0,77,-99.99,,,-99.99,158.990005,,2013-12-12 19:11:00,
2013-12-12 13:42:00,37.0,31.0,30.32,East,98,12.0,16.0,79,-99.99,,,-99.99,151.320007,,2013-12-12 20:42:00,
2013-12-12 14:11:00,36.0,33.0,30.30,ENE,78,19.0,21.0,88,-99.99,,,-99.99,131.100006,,2013-12-12 21:11:00,
2013-12-12 14:53:00,35.0,34.0,30.28,ENE,73,12.0,15.0,96,-99.99,,,-99.99,144.350006,,2013-12-12 21:53:00,
2013-12-12 15:12:00,38.0,32.0,30.27,ENE,73,12.0,14.0,79,-99.99,,,-99.99,103.209999,,2013-12-12 22:12:00,
2013-12-12 15:43:00,38.0,34.0,30.26,East,91,11.0,16.0,85,-99.99,,,-99.99,235.000000,,2013-12-12 22:43:00,
2013-12-12 16:12:00,37.0,33.0,30.26,East,93,9.0,12.0,85,-99.99,,,-99.99,61.369999,,2013-12-12 23:12:00,
2013-12-12 16:43:00,40.0,31.0,30.26,ENE,78,8.0,9.0,69,-99.99,,,-99.99,60.669998,,2013-12-12 23:43:00,
2013-12-12 19:42:00,35.0,34.0,30.22,West,276,18.0,23.0,97,-99.99,,,-99.99,0.000000,,2013-12-13 02:42:00,
2013-12-12 20:11:00,34.0,33.0,30.22,West,274,7.0,12.0,97,-99.99,,,-99.99,0.000000,,2013-12-13 03:11:00,
2013-12-12 20:43:00,35.0,35.0,30.22,West,265,7.0,21.0,98,-99.99,,,-99.99,0.000000,,2013-12-13 03:43:00,
2013-12-12 21:43:00,35.0,34.0,30.19,East,98,14.0,16.0,98,-99.99,,,-99.99,0.000000,,2013-12-13 04:43:00,
2013-12-12 22:42:00,37.0,35.0,30.19,ESE,118,5.0,7.0,94,-99.99,,,-99.99,0.000000,,2013-12-13 05:42:00,
2013-12-12 23:12:00,38.0,36.0,30.18,ESE,114,2.0,5.0,90,-99.99,,,-99.99,0.000000,,2013-12-13 06:12:00,
2013-12-12 23:42:00,36.0,35.0,30.17,West,276,12.0,19.0,95,-99.99,,,-99.99,0.000000,,2013-12-13 06:42:00,